NOAA 16 DEB, 41069

Orbit data source: Space-Track

NOAA 16 DEB, 41069 is space debris in SSO originally from a launch on Thu, 21 Sep 2000 UTC launched from the Air Force Western Test Range (AFWTR). Debris objects in space refer to the collection of defunct objects orbiting the Earth. Examples of debris include non-operational satellites, rocket bodies, and fragments generated from explosions, collisions, or faulty payload assembly.

Loading next visibility...
Identifier
41069, 2000-055AC
Orbit
SSO
Country
Flag of USUS
Related business
Manufacturer
Unknown
Mission
Spacecraft
Bus & Motor
Unknown
Mass
Unknown
Launch date (UTC)
2000-09-21 (26 years ago)
Launch vehicle
Unknown
Launch site
Air Force Western Test Range (AFWTR)
Object type
Payload
Rocket body
Debris
Shape & HBR
Unknown shape, 0.1 m
Radar Cross Section
Medium (>0.1 m² and <1 m²)

Expand to show TLE details & history
Last TLE update: 2 days ago

TLE from 2 days ago
0 NOAA 16 DEB
1 41069U 00055AC  26171.28414529  .00001727  00000-0  49245-3 0  9996
2 41069  98.6029 284.1537 0108565 168.5108 191.8597 14.43138977553077
Epoch: 2026-06-20T06:49Z
TLE epoch observation values (Epoch: 2026-06-20T06:49:10.153Z)
Latitude
-0.00005°
Longitude
-86.63958°
Altitude
826.862 km
Speed
7.4 km/s
True Right ascension
18h 56m 36s
True Declination
0° 00' 00"
Sunlit
Object was in full shadow at epoch
Visualization orbit readout
Latitude
Unknown
Longitude
Unknown
Altitude
Unknown
Speed
Unknown
Apparent Right ascension
Unknown
Apparent Declination
Unknown
Sunlit
N/A
Visualization observer readout
Local Sidereal Time
21:57:37
Azimuth
Unknown
Elevation
Unknown
Doppler factor
Unknown
Orbital elements
Apogee altitude
822.603 km
Perigee altitude
667.933 km
Semi-major axis
7,123.405 km
Eccentricity
0.01086
Inclination
98.6029°
RAAN
284.1537°
Arg. of periapsis
168.5108°
True anomaly
191.60738°
Mean anomaly
191.8597°
Eccentric anomaly
191.73321°
Mean motion
3.61004 °/min
Orbital period
99.72 mins
BSTAR
0.00049245
Loading maneuver chart data...
Computing Atmospheric mass density...
Loading historical data...
Loading historical data...
Loading historical data...
Loading historical data...
Loading historical data...
Loading historical data...
Loading historical data...

Documentation

Showing up to 5 results
|